Year,Month,Day,Hour,Minute,Value (Times are PST for temperature in C)
2013,05,23,10,35,10.10
2013,05,23,10,36,10.10
2013,05,23,10,37,10.20
2013,05,23,10,38,10.30
2013,05,23,10,39,10.40
2013,05,23,10,40,10.50
2013,05,23,10,41,10.60
2013,05,23,10,42,10.70
2013,05,23,10,43,10.70
2013,05,23,10,44,10.80
2013,05,23,10,45,10.80
2013,05,23,10,46,10.80
2013,05,23,10,47,10.80
2013,05,23,10,48,10.70
2013,05,23,10,49,10.70
2013,05,23,10,50,10.70
2013,05,23,10,51,10.60
2013,05,23,10,52,10.60
2013,05,23,10,53,10.60
2013,05,23,10,54,10.60
2013,05,23,10,55,10.60
2013,05,23,10,56,10.50
2013,05,23,10,57,10.50
2013,05,23,10,58,10.60
2013,05,23,10,59,10.60
2013,05,23,11,00,10.70
2013,05,23,11,01,10.70
2013,05,23,11,02,10.80
2013,05,23,11,03,10.80
2013,05,23,11,04,10.90
2013,05,23,11,05,10.80
2013,05,23,11,06,10.80
2013,05,23,11,07,10.80
2013,05,23,11,08,10.80
2013,05,23,11,09,10.80
2013,05,23,11,10,10.80
2013,05,23,11,11,10.80
2013,05,23,11,12,10.80
2013,05,23,11,13,10.80
2013,05,23,11,14,10.80
2013,05,23,11,15,10.80
2013,05,23,11,16,10.80
2013,05,23,11,17,10.80
2013,05,23,11,18,10.80
2013,05,23,11,19,10.70
2013,05,23,11,20,10.70
2013,05,23,11,21,10.70
2013,05,23,11,22,10.70
2013,05,23,11,23,10.70
2013,05,23,11,24,10.80
2013,05,23,11,25,10.80
2013,05,23,11,26,10.80
2013,05,23,11,27,10.90
2013,05,23,11,28,11.00
2013,05,23,11,29,11.10
2013,05,23,11,30,11.20
2013,05,23,11,31,11.20
2013,05,23,11,32,11.30
2013,05,23,11,33,11.30
2013,05,23,11,34,11.30
2013,05,23,11,35,11.40
2013,05,23,11,36,11.40
2013,05,23,11,37,11.40
2013,05,23,11,38,11.50
2013,05,23,11,39,11.40
2013,05,23,11,40,11.40
2013,05,23,11,41,11.40
2013,05,23,11,42,11.40
2013,05,23,11,43,11.30
2013,05,23,11,44,11.30
2013,05,23,11,45,11.40
2013,05,23,11,46,11.40
2013,05,23,11,47,11.40
2013,05,23,11,48,11.50
2013,05,23,11,49,11.60
2013,05,23,11,50,11.60
2013,05,23,11,51,11.60
2013,05,23,11,52,11.60
2013,05,23,11,53,11.50
2013,05,23,11,54,11.50
2013,05,23,11,55,11.40
2013,05,23,11,56,11.40
2013,05,23,11,57,11.40
2013,05,23,11,58,11.40
2013,05,23,11,59,11.30
2013,05,23,12,00,11.30
2013,05,23,12,01,11.30
2013,05,23,12,02,11.20
2013,05,23,12,03,11.20
2013,05,23,12,04,11.20
2013,05,23,12,05,11.20
2013,05,23,12,06,11.20
2013,05,23,12,07,11.20
2013,05,23,12,08,11.30
2013,05,23,12,09,11.40
2013,05,23,12,10,11.50
2013,05,23,12,11,11.60
2013,05,23,12,12,11.80
2013,05,23,12,13,11.90
2013,05,23,12,14,12.00
2013,05,23,12,15,12.00
2013,05,23,12,16,12.10
2013,05,23,12,17,12.10
2013,05,23,12,18,12.10
2013,05,23,12,19,12.10
2013,05,23,12,20,12.10
2013,05,23,12,21,12.10
2013,05,23,12,22,12.10
2013,05,23,12,23,12.10
2013,05,23,12,24,12.10
2013,05,23,12,25,12.10
2013,05,23,12,26,12.20
2013,05,23,12,27,12.20
2013,05,23,12,28,12.20
2013,05,23,12,29,12.20
2013,05,23,12,30,12.10
2013,05,23,12,31,12.10
2013,05,23,12,32,12.20
2013,05,23,12,33,12.10
2013,05,23,12,34,12.10
2013,05,23,12,35,12.00
2013,05,23,12,36,11.90
2013,05,23,12,37,11.90
2013,05,23,12,38,11.90
2013,05,23,12,39,11.90
2013,05,23,12,40,11.90
2013,05,23,12,41,12.00
2013,05,23,12,42,12.10
2013,05,23,12,43,12.20
2013,05,23,12,44,12.20
2013,05,23,12,45,12.20
2013,05,23,12,46,12.10
2013,05,23,12,47,12.10
2013,05,23,12,48,12.10
2013,05,23,12,49,12.10
2013,05,23,12,50,12.20
2013,05,23,12,51,12.20
2013,05,23,12,52,12.30
2013,05,23,12,53,12.30
2013,05,23,12,54,12.40
2013,05,23,12,55,12.50
2013,05,23,12,56,12.50
2013,05,23,12,57,12.60
2013,05,23,12,58,12.60
2013,05,23,12,59,12.60
2013,05,23,13,00,12.60
2013,05,23,13,01,12.60
2013,05,23,13,02,12.70
2013,05,23,13,03,12.70
2013,05,23,13,04,12.60
2013,05,23,13,05,12.60
2013,05,23,13,06,12.60
2013,05,23,13,07,12.50
2013,05,23,13,08,12.60
2013,05,23,13,09,12.60
2013,05,23,13,10,12.60
2013,05,23,13,11,12.70
2013,05,23,13,12,12.70
2013,05,23,13,13,12.70
2013,05,23,13,14,12.70
2013,05,23,13,15,12.80
2013,05,23,13,16,12.80
2013,05,23,13,19,13.00
2013,05,23,13,20,13.00
2013,05,23,13,21,13.10
2013,05,23,13,22,13.10
2013,05,23,13,23,13.10
2013,05,23,13,24,13.00
2013,05,23,13,25,13.00
2013,05,23,13,26,12.90
2013,05,23,13,27,12.90
2013,05,23,13,28,12.80
2013,05,23,13,29,12.80
2013,05,23,13,30,12.70
2013,05,23,13,31,12.70
2013,05,23,13,32,12.60
2013,05,23,13,33,12.60
2013,05,23,13,34,12.50
2013,05,23,13,35,12.40
2013,05,23,13,36,12.40
2013,05,23,13,37,12.40
2013,05,23,13,38,12.40
2013,05,23,13,39,12.40
2013,05,23,13,40,12.40
2013,05,23,13,41,12.40
2013,05,23,13,42,12.40
2013,05,23,13,43,12.40
2013,05,23,13,44,12.40
2013,05,23,13,45,12.40
2013,05,23,13,46,12.40
2013,05,23,13,47,12.50
2013,05,23,13,48,12.50
2013,05,23,13,49,12.60
2013,05,23,13,50,12.70
2013,05,23,13,51,12.70
2013,05,23,13,52,12.80
2013,05,23,13,53,12.80
2013,05,23,13,54,12.80
2013,05,23,13,55,12.80
2013,05,23,13,56,12.80
2013,05,23,13,57,12.80
2013,05,23,13,58,12.90
2013,05,23,13,59,13.00
2013,05,23,14,00,13.00
2013,05,23,14,01,13.00
2013,05,23,14,02,13.10
2013,05,23,14,03,13.10
2013,05,23,14,04,13.20
2013,05,23,14,05,13.20
2013,05,23,14,06,13.30
2013,05,23,14,07,13.30
2013,05,23,14,08,13.40
2013,05,23,14,09,13.50
2013,05,23,14,10,13.60
2013,05,23,14,11,13.70
2013,05,23,14,12,13.80
2013,05,23,14,13,13.80
2013,05,23,14,14,13.80
2013,05,23,14,15,13.80
2013,05,23,14,16,13.80
2013,05,23,14,17,13.90
2013,05,23,14,18,13.90
2013,05,23,14,19,14.00
2013,05,23,14,20,14.00
2013,05,23,14,21,14.00
2013,05,23,14,22,14.00
2013,05,23,14,23,14.00
2013,05,23,14,24,14.00
2013,05,23,14,25,13.90
2013,05,23,14,26,13.80
2013,05,23,14,27,13.70
2013,05,23,14,28,13.60
2013,05,23,14,29,13.50
2013,05,23,14,30,13.40
2013,05,23,14,31,13.40
2013,05,23,14,32,13.40
2013,05,23,14,33,13.40
2013,05,23,14,34,13.40
2013,05,23,14,35,13.30
2013,05,23,14,36,13.30
2013,05,23,14,37,13.30
2013,05,23,14,38,13.30
2013,05,23,14,39,13.30
2013,05,23,14,40,13.30
2013,05,23,14,41,13.30
2013,05,23,14,42,13.30
2013,05,23,14,43,13.20
2013,05,23,14,44,13.30
2013,05,23,14,45,13.30
2013,05,23,14,46,13.20
2013,05,23,14,47,13.20
2013,05,23,14,48,13.10
2013,05,23,14,49,13.10
2013,05,23,14,50,13.00
2013,05,23,14,51,13.00
2013,05,23,14,52,13.00
2013,05,23,14,53,13.10
2013,05,23,14,54,13.20
2013,05,23,14,55,13.20
2013,05,23,14,56,13.30
2013,05,23,14,57,13.40
2013,05,23,14,58,13.50
2013,05,23,14,59,13.50
2013,05,23,15,00,13.60
2013,05,23,15,01,13.60
2013,05,23,15,02,13.60
2013,05,23,15,03,13.60
2013,05,23,15,04,13.60
2013,05,23,15,05,13.70
2013,05,23,15,06,13.70
2013,05,23,15,07,13.70
2013,05,23,15,08,13.70
2013,05,23,15,09,13.80
2013,05,23,15,10,13.80
2013,05,23,15,11,13.90
2013,05,23,15,12,13.90
2013,05,23,15,13,14.00
2013,05,23,15,14,14.10
2013,05,23,15,15,14.10
2013,05,23,15,16,14.10
2013,05,23,15,17,14.10
2013,05,23,15,18,14.10
2013,05,23,15,19,14.10
2013,05,23,15,20,14.10
2013,05,23,15,21,14.10
2013,05,23,15,22,14.10
2013,05,23,15,23,14.10
2013,05,23,15,24,14.10
2013,05,23,15,25,14.00
2013,05,23,15,26,13.90
2013,05,23,15,27,13.90
2013,05,23,15,28,13.80
2013,05,23,15,29,13.80
2013,05,23,15,30,13.80
2013,05,23,15,31,13.70
2013,05,23,15,32,13.70
2013,05,23,15,33,13.70
2013,05,23,15,34,13.70
2013,05,23,15,35,13.70
2013,05,23,15,36,13.80
2013,05,23,15,37,13.80
2013,05,23,15,38,13.90
2013,05,23,15,39,13.90
2013,05,23,15,40,13.90
2013,05,23,15,41,13.90
2013,05,23,15,42,14.00
2013,05,23,15,43,14.00
2013,05,23,15,44,14.10
2013,05,23,15,45,14.20
2013,05,23,15,46,14.20
2013,05,23,15,47,14.30
2013,05,23,15,48,14.50
2013,05,23,15,49,14.60
2013,05,23,15,50,14.70
2013,05,23,15,51,14.80
2013,05,23,15,52,14.80
2013,05,23,15,53,14.80
2013,05,23,15,54,14.90
2013,05,23,15,55,14.90
2013,05,23,15,56,14.90
2013,05,23,15,57,14.90
2013,05,23,15,58,14.90
2013,05,23,15,59,14.80
2013,05,23,16,00,14.70
2013,05,23,16,01,14.60
2013,05,23,16,02,14.50
2013,05,23,16,03,14.40
2013,05,23,16,04,14.30
2013,05,23,16,05,14.20
2013,05,23,16,06,14.20
2013,05,23,16,07,14.30
2013,05,23,16,08,14.30
2013,05,23,16,09,14.30
2013,05,23,16,10,14.30
2013,05,23,16,11,14.30
2013,05,23,16,12,14.20
2013,05,23,16,13,14.20
2013,05,23,16,14,14.10
2013,05,23,16,15,14.10
2013,05,23,16,16,14.00
2013,05,23,16,17,14.00
2013,05,23,16,18,14.00
2013,05,23,16,19,14.00
2013,05,23,16,20,14.00
2013,05,23,16,21,14.00
2013,05,23,16,22,13.90
2013,05,23,16,23,13.80
2013,05,23,16,24,13.70
2013,05,23,16,25,13.70
2013,05,23,16,26,13.60
2013,05,23,16,27,13.50
2013,05,23,16,28,13.50
2013,05,23,16,29,13.40
2013,05,23,16,30,13.40
2013,05,23,16,31,13.40
2013,05,23,16,32,13.40
2013,05,23,16,33,13.50
2013,05,23,16,34,13.50
2013,05,23,16,35,13.60
2013,05,23,16,36,13.60
2013,05,23,16,37,13.70
2013,05,23,16,38,13.70
2013,05,23,16,39,13.80
2013,05,23,16,40,13.90
2013,05,23,16,41,13.90
2013,05,23,16,42,13.90
2013,05,23,16,43,14.00
2013,05,23,16,44,14.00
2013,05,23,16,45,14.00
2013,05,23,16,46,13.90
2013,05,23,16,47,13.90
2013,05,23,16,48,13.90
2013,05,23,16,49,13.90
2013,05,23,16,50,13.80
2013,05,23,16,51,13.80
2013,05,23,16,52,13.70
2013,05,23,16,53,13.70
2013,05,23,16,54,13.70
2013,05,23,16,55,13.70
2013,05,23,16,56,13.60
2013,05,23,16,57,13.70
2013,05,23,16,58,13.70
2013,05,23,16,59,13.70
2013,05,23,17,00,13.70
2013,05,23,17,01,13.80
2013,05,23,17,02,13.80
2013,05,23,17,03,13.90
2013,05,23,17,04,13.90
2013,05,23,17,05,13.90
2013,05,23,17,06,14.00
2013,05,23,17,07,14.00
2013,05,23,17,08,14.00
2013,05,23,17,09,14.10
2013,05,23,17,10,14.10
2013,05,23,17,11,14.10
2013,05,23,17,12,14.10
2013,05,23,17,13,14.10
2013,05,23,17,14,14.10
2013,05,23,17,15,14.10
2013,05,23,17,16,14.20
2013,05,23,17,17,14.20
2013,05,23,17,18,14.20
2013,05,23,17,19,14.30
2013,05,23,17,20,14.30
2013,05,23,17,21,14.40
2013,05,23,17,22,14.40
2013,05,23,17,23,14.40
2013,05,23,17,24,14.40
2013,05,23,17,25,14.40
2013,05,23,17,26,14.40
2013,05,23,17,27,14.40
2013,05,23,17,28,14.50
2013,05,23,17,29,14.50
2013,05,23,17,30,14.60
2013,05,23,17,31,14.60
2013,05,23,17,32,14.70
2013,05,23,17,33,14.70
2013,05,23,17,34,14.70
2013,05,23,17,35,14.70
2013,05,23,17,36,14.70
2013,05,23,17,37,14.60
2013,05,23,17,38,14.60
2013,05,23,17,39,14.50
2013,05,23,17,40,14.50
2013,05,23,17,41,14.40
2013,05,23,17,42,14.30
2013,05,23,17,43,14.20
2013,05,23,17,44,14.10
2013,05,23,17,45,14.00
2013,05,23,17,46,13.90
2013,05,23,17,47,13.80
2013,05,23,17,48,13.80
2013,05,23,17,49,13.80
2013,05,23,17,50,13.80
2013,05,23,17,51,13.90
2013,05,23,17,52,13.90
2013,05,23,17,53,13.90
2013,05,23,17,54,14.00
2013,05,23,17,55,14.00
2013,05,23,17,56,14.10
2013,05,23,17,57,14.10
2013,05,23,17,58,14.10
2013,05,23,17,59,14.10
2013,05,23,18,00,14.10
2013,05,23,18,01,14.10
2013,05,23,18,02,14.10
2013,05,23,18,03,14.00
2013,05,23,18,04,14.00
2013,05,23,18,05,14.00
2013,05,23,18,06,13.90
2013,05,23,18,07,13.90
2013,05,23,18,08,13.80
2013,05,23,18,09,13.80
2013,05,23,18,10,13.80
2013,05,23,18,11,13.70
2013,05,23,18,12,13.70
2013,05,23,18,13,13.70
2013,05,23,18,14,13.70
2013,05,23,18,15,13.70
2013,05,23,18,16,13.70
2013,05,23,18,17,13.70
2013,05,23,18,18,13.70
2013,05,23,18,19,13.60
2013,05,23,18,20,13.60
2013,05,23,18,21,13.60
2013,05,23,18,22,13.60
2013,05,23,18,23,13.60
2013,05,23,18,24,13.60
2013,05,23,18,25,13.50
2013,05,23,18,26,13.50
2013,05,23,18,27,13.40
2013,05,23,18,28,13.40
2013,05,23,18,29,13.40
2013,05,23,18,30,13.30
2013,05,23,18,31,13.30
2013,05,23,18,32,13.30
2013,05,23,18,33,13.30
2013,05,23,18,34,13.30
2013,05,23,18,35,13.30
2013,05,23,18,36,13.30
2013,05,23,18,37,13.20
2013,05,23,18,38,13.30
2013,05,23,18,39,13.30
2013,05,23,18,40,13.30
2013,05,23,18,41,13.30
2013,05,23,18,42,13.30
2013,05,23,18,43,13.30
2013,05,23,18,44,13.30
2013,05,23,18,45,13.30
2013,05,23,18,46,13.30
2013,05,23,18,47,13.30
2013,05,23,18,48,13.30
2013,05,23,18,49,13.30
2013,05,23,18,50,13.20
2013,05,23,18,51,13.20
2013,05,23,18,52,13.10
2013,05,23,18,53,13.10
2013,05,23,18,54,13.00
2013,05,23,18,55,13.00
2013,05,23,18,56,12.90
2013,05,23,18,57,12.90
2013,05,23,18,58,12.80
2013,05,23,18,59,12.80
2013,05,23,19,00,12.80
2013,05,23,19,01,12.70
2013,05,23,19,02,12.70
2013,05,23,19,03,12.60
2013,05,23,19,04,12.60
2013,05,23,19,05,12.50
2013,05,23,19,06,12.50
2013,05,23,19,07,12.50
2013,05,23,19,08,12.40
2013,05,23,19,09,12.40
2013,05,23,19,10,12.40
2013,05,23,19,11,12.30
2013,05,23,19,12,12.30
2013,05,23,19,13,12.30
2013,05,23,19,14,12.30
2013,05,23,19,15,12.20
2013,05,23,19,16,12.20
2013,05,23,19,17,12.20
2013,05,23,19,18,12.20
2013,05,23,19,19,12.10
2013,05,23,19,20,12.10
2013,05,23,19,21,12.10
2013,05,23,19,22,12.00
2013,05,23,19,23,12.00
2013,05,23,19,24,11.90
2013,05,23,19,25,11.90
2013,05,23,19,26,11.80
2013,05,23,19,27,11.80
2013,05,23,19,28,11.80
2013,05,23,19,29,11.80
2013,05,23,19,30,11.70
2013,05,23,19,31,11.70
2013,05,23,19,32,11.70
2013,05,23,19,33,11.70
2013,05,23,19,34,11.60
2013,05,23,19,35,11.60
2013,05,23,19,36,11.60
2013,05,23,19,37,11.60
2013,05,23,19,38,11.60
2013,05,23,19,39,11.60
2013,05,23,19,40,11.60
2013,05,23,19,41,11.60
2013,05,23,19,42,11.60
2013,05,23,19,43,11.50
2013,05,23,19,44,11.50
2013,05,23,19,45,11.50
2013,05,23,19,46,11.40
2013,05,23,19,47,11.40
2013,05,23,19,48,11.40
2013,05,23,19,49,11.30
2013,05,23,19,50,11.30
2013,05,23,19,51,11.30
2013,05,23,19,52,11.30
2013,05,23,19,53,11.30
2013,05,23,19,54,11.20
2013,05,23,19,55,11.20
2013,05,23,19,56,11.10
2013,05,23,19,57,11.10
2013,05,23,19,58,11.10
2013,05,23,19,59,11.00
2013,05,23,20,00,11.00
2013,05,23,20,01,10.90
2013,05,23,20,02,10.90
2013,05,23,20,03,10.80
2013,05,23,20,04,10.80
2013,05,23,20,05,10.80
2013,05,23,20,06,10.80
2013,05,23,20,07,10.70
2013,05,23,20,08,10.70
2013,05,23,20,09,10.70
2013,05,23,20,10,10.60
2013,05,23,20,11,10.60
2013,05,23,20,12,10.60
2013,05,23,20,13,10.50
2013,05,23,20,14,10.50
2013,05,23,20,15,10.50
2013,05,23,20,16,10.40
2013,05,23,20,17,10.40
2013,05,23,20,18,10.40
2013,05,23,20,19,10.30
2013,05,23,20,20,10.30
2013,05,23,20,21,10.30
2013,05,23,20,22,10.30
2013,05,23,20,23,10.30
2013,05,23,20,24,10.20
2013,05,23,20,25,10.20
2013,05,23,20,26,10.20
2013,05,23,20,27,10.10
2013,05,23,20,28,10.10
2013,05,23,20,29,10.10
2013,05,23,20,30,10.00
2013,05,23,20,31,10.00
2013,05,23,20,32,10.00
2013,05,23,20,33,9.90
2013,05,23,20,34,9.90
2013,05,23,20,35,9.90
2013,05,23,20,36,9.80
2013,05,23,20,37,9.80
2013,05,23,20,38,9.80
2013,05,23,20,39,9.80
2013,05,23,20,40,9.80
2013,05,23,20,41,9.70
2013,05,23,20,42,9.70
2013,05,23,20,43,9.70
2013,05,23,20,44,9.70
2013,05,23,20,45,9.60
2013,05,23,20,46,9.60
2013,05,23,20,47,9.60
2013,05,23,20,48,9.60
2013,05,23,20,49,9.50
2013,05,23,20,50,9.50
2013,05,23,20,51,9.40
2013,05,23,20,52,9.40
2013,05,23,20,53,9.40
2013,05,23,20,54,9.40
2013,05,23,20,55,9.30
2013,05,23,20,56,9.30
2013,05,23,20,57,9.30
2013,05,23,20,58,9.30
2013,05,23,20,59,9.20
2013,05,23,21,00,9.20
2013,05,23,21,01,9.20
2013,05,23,21,02,9.20
2013,05,23,21,03,9.10
2013,05,23,21,04,9.10
2013,05,23,21,05,9.10
2013,05,23,21,06,9.10
2013,05,23,21,07,9.00
2013,05,23,21,08,9.00
2013,05,23,21,09,9.00
2013,05,23,21,10,8.90
2013,05,23,21,11,8.90
2013,05,23,21,12,8.90
2013,05,23,21,13,8.80
2013,05,23,21,14,8.80
2013,05,23,21,15,8.80
2013,05,23,21,16,8.80
2013,05,23,21,17,8.70
2013,05,23,21,18,8.70
2013,05,23,21,19,8.70
2013,05,23,21,20,8.70
2013,05,23,21,21,8.70
2013,05,23,21,22,8.60
2013,05,23,21,23,8.60
2013,05,23,21,24,8.60
2013,05,23,21,25,8.60
2013,05,23,21,26,8.50
2013,05,23,21,27,8.50
2013,05,23,21,28,8.50
2013,05,23,21,29,8.40
2013,05,23,21,30,8.40
2013,05,23,21,31,8.40
2013,05,23,21,32,8.40
2013,05,23,21,33,8.40
2013,05,23,21,34,8.40
2013,05,23,21,35,8.40
2013,05,23,21,36,8.30
2013,05,23,21,37,8.30
2013,05,23,21,38,8.30
2013,05,23,21,39,8.30
2013,05,23,21,40,8.30
2013,05,23,21,41,8.30
2013,05,23,21,42,8.30
2013,05,23,21,43,8.20
2013,05,23,21,44,8.20
2013,05,23,21,45,8.20
2013,05,23,21,46,8.20
2013,05,23,21,47,8.20
2013,05,23,21,48,8.20
2013,05,23,21,49,8.10
2013,05,23,21,50,8.10
2013,05,23,21,51,8.10
2013,05,23,21,52,8.10
2013,05,23,21,53,8.10
2013,05,23,21,54,8.10
2013,05,23,21,55,8.10
2013,05,23,21,56,8.10
2013,05,23,21,57,8.10
2013,05,23,21,58,8.10
2013,05,23,21,59,8.10
2013,05,23,22,00,8.10
2013,05,23,22,01,8.10
2013,05,23,22,02,8.10
2013,05,23,22,03,8.10
2013,05,23,22,04,8.10
2013,05,23,22,05,8.10
2013,05,23,22,06,8.10
2013,05,23,22,07,8.10
2013,05,23,22,08,8.10
2013,05,23,22,09,8.10
2013,05,23,22,10,8.10
2013,05,23,22,11,8.10
2013,05,23,22,12,8.10
2013,05,23,22,13,8.10
2013,05,23,22,14,8.10
2013,05,23,22,15,8.10
2013,05,23,22,16,8.10
2013,05,23,22,17,8.10
2013,05,23,22,18,8.10
2013,05,23,22,19,8.10
2013,05,23,22,20,8.10
2013,05,23,22,21,8.20
2013,05,23,22,22,8.20
2013,05,23,22,23,8.20
2013,05,23,22,24,8.20
2013,05,23,22,25,8.20
2013,05,23,22,26,8.20
2013,05,23,22,27,8.20
2013,05,23,22,28,8.20
2013,05,23,22,29,8.20
2013,05,23,22,30,8.20
2013,05,23,22,31,8.20
2013,05,23,22,32,8.20
2013,05,23,22,33,8.20
2013,05,23,22,34,8.20
2013,05,23,22,35,8.20
2013,05,23,22,36,8.20
2013,05,23,22,37,8.30
2013,05,23,22,38,8.30
2013,05,23,22,39,8.30
2013,05,23,22,40,8.30
2013,05,23,22,41,8.30
2013,05,23,22,42,8.30
2013,05,23,22,43,8.30
2013,05,23,22,44,8.30
2013,05,23,22,45,8.30
2013,05,23,22,46,8.30
2013,05,23,22,47,8.30
2013,05,23,22,48,8.30
2013,05,23,22,49,8.30
2013,05,23,22,50,8.30
2013,05,23,22,51,8.30
2013,05,23,22,52,8.30
2013,05,23,22,53,8.30
2013,05,23,22,54,8.30
2013,05,23,22,55,8.30
2013,05,23,22,56,8.30
2013,05,23,22,57,8.30
2013,05,23,22,58,8.30
2013,05,23,22,59,8.30
2013,05,23,23,00,8.30
2013,05,23,23,01,8.30
2013,05,23,23,02,8.40
2013,05,23,23,03,8.40
2013,05,23,23,04,8.40
2013,05,23,23,05,8.40
2013,05,23,23,06,8.40
2013,05,23,23,07,8.40
2013,05,23,23,08,8.40
2013,05,23,23,09,8.40
2013,05,23,23,10,8.40
2013,05,23,23,11,8.40
2013,05,23,23,12,8.40
2013,05,23,23,13,8.40
2013,05,23,23,14,8.40
2013,05,23,23,15,8.40
2013,05,23,23,16,8.40
2013,05,23,23,17,8.40
2013,05,23,23,18,8.40
2013,05,23,23,19,8.40
2013,05,23,23,20,8.40
2013,05,23,23,21,8.40
2013,05,23,23,22,8.40
2013,05,23,23,23,8.40
2013,05,23,23,24,8.40
2013,05,23,23,25,8.40
2013,05,23,23,26,8.40
2013,05,23,23,27,8.40
2013,05,23,23,28,8.40
2013,05,23,23,29,8.30
2013,05,23,23,30,8.30
2013,05,23,23,31,8.30
2013,05,23,23,32,8.30
2013,05,23,23,33,8.30
2013,05,23,23,34,8.30
2013,05,23,23,35,8.30
2013,05,23,23,36,8.40
2013,05,23,23,37,8.40
2013,05,23,23,38,8.40
2013,05,23,23,39,8.40
2013,05,23,23,40,8.40
2013,05,23,23,41,8.40
2013,05,23,23,42,8.40
2013,05,23,23,43,8.40
2013,05,23,23,44,8.40
2013,05,23,23,45,8.40
2013,05,23,23,46,8.40
2013,05,23,23,47,8.40
2013,05,23,23,48,8.40
2013,05,23,23,49,8.40
2013,05,23,23,50,8.40
2013,05,23,23,51,8.40
2013,05,23,23,52,8.40
2013,05,23,23,53,8.40
2013,05,23,23,54,8.40
2013,05,23,23,55,8.40
2013,05,23,23,56,8.40
2013,05,23,23,57,8.40
2013,05,23,23,58,8.40
2013,05,23,23,59,8.40
